Location: Splawn
(30.9202°N, 96.9858°W)
Time: 09:04:08
(UTC+00:00)

Transit 2A Rocket - Pass Details

Date: 08 March 2020
Orbit: 588 x 915 km, 66.7° (Epoch: 07 April)

Event Time Altitude Azimuth Distance (km) Brightness Sun altitude
Rises 11:12:47 0° 325° (NW) 3,298 - -20.7°
Reaches altitude 10° 11:15:15 10° 318° (NW) 2,413 - -20.2°
Exits shadow 11:18:46 33° 288° (WNW) 1,403 5.8 -19.5°
Maximum altitude 11:20:27 40° 250° (WSW) 1,242 5.6 -19.1°
Drops below altitude 10° 11:25:58 10° 182° (S) 2,557 7.6 -17.9°
Sets 11:28:40 0° 175° (S) 3,515 8.4 -17.3°
